TimeEDT,TemperatureF,Dew PointF,Humidity,Sea Level PressureIn,VisibilityMPH,Wind Direction,Wind SpeedMPH,Gust SpeedMPH,PrecipitationIn,Events,Conditions,WindDirDegrees,DateUTC
12:15 AM,34.2,26.6,74,30.17,10.0,West,9.2,-,N/A,,Overcast,280,2013-03-27 04:15:00
12:35 AM,34.2,26.2,73,30.18,10.0,West,8.1,-,N/A,,Overcast,270,2013-03-27 04:35:00
12:55 AM,34.2,26.4,73,30.17,10.0,West,8.1,-,N/A,,Overcast,270,2013-03-27 04:55:00
1:15 AM,34.2,26.6,74,30.17,10.0,West,9.2,-,N/A,,Overcast,270,2013-03-27 05:15:00
1:35 AM,34.2,26.8,74,30.17,10.0,West,9.2,-,N/A,,Overcast,270,2013-03-27 05:35:00
1:55 AM,33.8,26.6,75,30.17,10.0,West,8.1,-,N/A,,Overcast,270,2013-03-27 05:55:00
2:15 AM,33.8,26.4,74,30.17,10.0,West,6.9,-,N/A,,Overcast,280,2013-03-27 06:15:00
2:35 AM,33.8,26.2,74,30.17,10.0,West,9.2,-,N/A,,Overcast,280,2013-03-27 06:35:00
2:55 AM,33.3,26.4,76,30.17,10.0,West,6.9,-,N/A,,Overcast,280,2013-03-27 06:55:00
3:15 AM,33.3,25.9,74,30.17,10.0,West,5.8,-,N/A,,Overcast,260,2013-03-27 07:15:00
3:35 AM,32.9,26.2,76,30.17,10.0,West,6.9,-,N/A,,Overcast,270,2013-03-27 07:35:00
3:55 AM,32.5,25.9,76,30.17,10.0,West,5.8,-,N/A,,Overcast,260,2013-03-27 07:55:00
4:15 AM,32.7,26.1,76,30.17,10.0,West,8.1,-,N/A,,Overcast,260,2013-03-27 08:15:00
4:35 AM,32.4,26.1,78,30.17,10.0,West,8.1,-,N/A,,Overcast,260,2013-03-27 08:35:00
4:55 AM,32.9,25.9,75,30.17,10.0,West,5.8,-,N/A,,Overcast,270,2013-03-27 08:55:00
5:15 AM,32.9,26.1,76,30.17,10.0,West,9.2,-,N/A,,Overcast,270,2013-03-27 09:15:00
5:35 AM,32.5,26.2,78,30.17,10.0,West,6.9,-,N/A,,Overcast,270,2013-03-27 09:35:00
5:55 AM,32.2,26.1,78,30.17,10.0,West,8.1,-,N/A,,Mostly Cloudy,270,2013-03-27 09:55:00
6:15 AM,32.0,26.1,79,30.18,10.0,West,9.2,-,N/A,,Mostly Cloudy,260,2013-03-27 10:15:00
6:35 AM,32.0,26.2,79,30.18,10.0,West,8.1,-,N/A,,Overcast,260,2013-03-27 10:35:00
6:55 AM,32.0,26.2,79,30.19,10.0,West,8.1,-,N/A,,Overcast,260,2013-03-27 10:55:00
7:15 AM,32.2,26.4,79,30.19,10.0,WSW,5.8,-,N/A,,Overcast,250,2013-03-27 11:15:00
7:35 AM,32.5,26.6,79,30.20,10.0,West,8.1,-,N/A,,Overcast,270,2013-03-27 11:35:00
7:55 AM,32.7,27.0,79,30.21,7.0,West,9.2,-,N/A,,Overcast,280,2013-03-27 11:55:00
8:15 AM,32.4,27.5,82,30.21,10.0,West,8.1,-,N/A,,Overcast,280,2013-03-27 12:15:00
8:35 AM,32.4,28.2,85,30.22,5.0,West,6.9,-,N/A,,Overcast,270,2013-03-27 12:35:00
8:55 AM,32.5,28.8,86,30.22,10.0,West,8.1,-,N/A,,Overcast,270,2013-03-27 12:55:00
9:15 AM,33.1,27.9,81,30.23,10.0,West,8.1,-,N/A,,Overcast,270,2013-03-27 13:15:00
9:35 AM,33.8,28.0,79,30.23,10.0,West,9.2,-,N/A,,Overcast,270,2013-03-27 13:35:00
9:55 AM,34.0,28.0,79,30.23,10.0,West,10.4,-,N/A,,Overcast,270,2013-03-27 13:55:00
10:15 AM,34.9,28.8,78,30.23,10.0,West,8.1,-,N/A,,Overcast,280,2013-03-27 14:15:00
10:35 AM,35.6,28.8,76,30.23,10.0,WNW,10.4,-,N/A,,Overcast,290,2013-03-27 14:35:00
10:55 AM,36.3,28.8,74,30.23,10.0,West,12.7,17.3,N/A,,Overcast,270,2013-03-27 14:55:00
11:15 AM,36.7,28.0,71,30.24,10.0,WNW,10.4,-,N/A,,Overcast,300,2013-03-27 15:15:00
11:35 AM,37.9,28.4,69,30.24,10.0,West,11.5,-,N/A,,Overcast,260,2013-03-27 15:35:00
11:55 AM,38.5,28.2,67,30.24,10.0,WNW,9.2,19.6,N/A,,Overcast,290,2013-03-27 15:55:00
12:15 PM,39.0,27.5,63,30.24,10.0,West,9.2,24.2,N/A,,Overcast,280,2013-03-27 16:15:00
12:35 PM,41.0,27.7,59,30.24,10.0,West,12.7,16.1,N/A,,Mostly Cloudy,280,2013-03-27 16:35:00
12:55 PM,41.2,27.0,57,30.24,10.0,West,16.1,20.7,N/A,,Mostly Cloudy,270,2013-03-27 16:55:00
1:15 PM,41.0,25.0,53,30.24,10.0,WNW,11.5,19.6,N/A,,Overcast,300,2013-03-27 17:15:00
1:35 PM,42.8,25.9,51,30.24,10.0,WNW,9.2,-,N/A,,Mostly Cloudy,300,2013-03-27 17:35:00
1:55 PM,41.4,23.4,49,30.23,10.0,West,15.0,19.6,N/A,,Mostly Cloudy,270,2013-03-27 17:55:00
2:15 PM,40.6,23.4,50,30.23,10.0,WNW,10.4,18.4,N/A,,Overcast,290,2013-03-27 18:15:00
2:35 PM,41.2,24.4,51,30.22,10.0,WNW,11.5,-,N/A,,Overcast,300,2013-03-27 18:35:00
2:55 PM,40.6,23.9,51,30.22,10.0,WNW,10.4,-,N/A,,Overcast,290,2013-03-27 18:55:00
3:15 PM,41.2,24.3,51,30.22,10.0,WNW,10.4,16.1,N/A,,Overcast,290,2013-03-27 19:15:00
3:35 PM,41.0,24.3,51,30.22,10.0,West,9.2,16.1,N/A,,Overcast,280,2013-03-27 19:35:00
3:55 PM,41.7,24.4,50,30.22,10.0,WNW,12.7,18.4,N/A,,Overcast,300,2013-03-27 19:55:00
4:15 PM,41.0,24.1,51,30.22,10.0,WNW,12.7,-,N/A,,Overcast,300,2013-03-27 20:15:00
4:35 PM,40.8,24.3,52,30.22,10.0,West,9.2,18.4,N/A,,Overcast,270,2013-03-27 20:35:00
4:55 PM,41.2,21.7,46,30.22,10.0,West,17.3,21.9,N/A,,Overcast,280,2013-03-27 20:55:00
5:15 PM,41.0,24.3,51,30.22,10.0,West,11.5,20.7,N/A,,Overcast,280,2013-03-27 21:15:00
5:35 PM,41.0,24.3,51,30.22,10.0,West,11.5,17.3,N/A,,Overcast,280,2013-03-27 21:35:00
5:55 PM,40.5,25.5,55,30.23,10.0,WNW,16.1,20.7,N/A,,Overcast,300,2013-03-27 21:55:00
6:15 PM,40.5,26.2,57,30.23,10.0,West,13.8,-,N/A,,Mostly Cloudy,280,2013-03-27 22:15:00
6:35 PM,40.3,25.9,56,30.23,10.0,WNW,9.2,20.7,N/A,,Mostly Cloudy,290,2013-03-27 22:35:00
6:55 PM,39.7,26.2,59,30.24,10.0,West,8.1,-,N/A,,Overcast,280,2013-03-27 22:55:00
7:15 PM,39.6,26.2,59,30.24,10.0,West,10.4,-,N/A,,Overcast,270,2013-03-27 23:15:00
7:35 PM,39.2,26.8,61,30.24,10.0,WSW,10.4,-,N/A,,Overcast,250,2013-03-27 23:35:00
7:55 PM,38.8,27.0,62,30.24,10.0,West,6.9,-,N/A,,Overcast,270,2013-03-27 23:55:00
8:15 PM,38.3,27.0,64,30.24,10.0,West,5.8,-,N/A,,Overcast,260,2013-03-28 00:15:00
8:35 PM,37.6,27.5,67,30.24,10.0,WSW,4.6,-,N/A,,Overcast,250,2013-03-28 00:35:00
8:55 PM,37.4,27.3,67,30.24,10.0,West,4.6,-,N/A,,Overcast,260,2013-03-28 00:55:00
9:15 PM,36.5,26.6,67,30.24,10.0,WSW,4.6,-,N/A,,Overcast,250,2013-03-28 01:15:00
9:35 PM,37.0,26.8,66,30.25,10.0,West,4.6,-,N/A,,Overcast,260,2013-03-28 01:35:00
9:55 PM,36.9,26.2,65,30.25,10.0,WSW,5.8,-,N/A,,Overcast,250,2013-03-28 01:55:00
10:15 PM,35.8,25.7,67,30.25,10.0,West,5.8,-,N/A,,Overcast,260,2013-03-28 02:15:00
10:35 PM,34.2,24.6,68,30.26,10.0,WSW,4.6,-,N/A,,Mostly Cloudy,250,2013-03-28 02:35:00
10:55 PM,33.3,24.4,70,30.26,10.0,West,5.8,-,N/A,,Clear,260,2013-03-28 02:55:00
11:15 PM,32.2,24.4,73,30.26,10.0,WSW,6.9,-,N/A,,Clear,250,2013-03-28 03:15:00
11:35 PM,32.9,24.3,71,30.26,10.0,West,5.8,-,N/A,,Scattered Clouds,260,2013-03-28 03:35:00
11:55 PM,33.1,24.8,72,30.26,10.0,West,5.8,-,N/A,,Overcast,260,2013-03-28 03:55:00